sat.trackr.live / text

‹ back to catalog

STARLINK-37270

NORAD 68727 · 2026-081AE

PAYLOAD ACTIVE UNKNOWN

§ Identity

Operator
Country
US
Launch date
2026-04-14
Launch site
AFETR
Launch vehicle
Mass (kg)
RCS (m²)

Purposes: comms

External: N2YO · Heavens-Above · Gunter

§ Orbital elements

Epoch: 2026-05-25T02:50:09.957120Z

Period
92.94 min
Inclination
53.1599°
Eccentricity
0.0001153
Mean motion
15.49350391 rev/d
Perigee alt
417.8 km
Apogee alt
419.4 km
Semi-major
6,796.8 km
B*
5.5987e-4
RAAN
39.8655°
Arg perigee
83.1344°
Mean anomaly
276.9796°
Rev number
643

§ Raw data

STARLINK-372701 68727U 26081AE  26145.11817080  .00030858  00000+0  55987-3 0  99912 68727  53.1599  39.8655 0001153  83.1344 276.9796 15.49350391  6432

JSON: /api/v1/satellites/68727 · /tle

For live sub-satellite position, see the globe view (requires WebGL).

§ Visibility from observer

Set your observer location to see the next 7 days of passes ≥ 10°. The values pass through the URL so the page stays shareable.

No JS? Fill the form by hand. The geolocation button needs JavaScript.